Home   Weather   Zwettl   Past weeks

Flag for Austria Past Weather in Zwettl, Lower Austria, Austria — Yesterday and Last 2 Weeks

Now
65 °F

Fog.


Feels Like: 65 °F
Forecast: 62 / 80 °F
Wind: 2 mph from Southwest

Location: Retz

Current Time: Jul 21, 2017 at 4:54:47 am

Latest Report: Jul 21, 2017 at 3:00 am


Visibility: N/A

Pressure: 29.94 "Hg (28.16 "Hg at 524m altitude)

Humidity: 99%

Dew Point: 65 °F

Location of ZwettlLocation

Past Weather in Zwettl — Graph

°F

Zwettl Temperature Yesterday

Maximum temperature yesterday: 89 °F (at 3:00 pm)
Minimum temperature yesterday: 63 °F (at 6:00 am)
Average temperature yesterday: 76 °F

High & Low Weather Summary for the Past Weeks

 TemperatureHumidityPressure
High89 °F (Jul 20, 3:00 pm)99% (Jul 21, 3:00 am)30.24 "Hg (Jul 21, 3:00 am)
Low53 °F (Jul 14, 3:00 am)27% (Jul 16, 5:00 pm)29.72 "Hg (Jul 10, 5:00 pm)
Average71 °F58%29.98 "Hg
* Reported Jul 6 3:00 am — Jul 21 3:00 am, Zwettl. Weather by CustomWeather, © 2017

Note: Actual official high and low records may vary slightly from our data, if they occured in-between our weather recording intervals... More about our weather records

Advertising

Zwettl Weather History for the Previous 24 Hours

Scroll right to see more
 ConditionsComfort  
Time TempWeatherWind HumidityBarometerVisibility
3:00 am
Fri, Jul 21
65 °FFog.2 mph99%29.94 "HgN/A
2:00 am66 °FMild.6 mph94%29.92 "HgN/A
1:00 am66 °FFog.5 mph94%29.91 "HgN/A
12:00 am66 °FMild.3 mph92%29.93 "HgN/A
11:00 pm
Thu, Jul 20
67 °FMild.10 mph84%29.89 "HgN/A
10:00 pm71 °FMild.12 mph73%29.84 "HgN/A
9:00 pm78 °FSprinkles. Overcast.5 mph52%29.77 "HgN/A
6:00 pm87 °FPleasantly warm.3 mph38%29.74 "HgN/A
5:00 pm89 °FHot.3 mph31%29.74 "HgN/A
4:00 pm89 °FHot.1 mph33%29.75 "HgN/A
3:00 pm89 °FHot.3 mph30%29.77 "HgN/A
2:00 pm87 °FThundershowers. Partly sunny.6 mph35%29.78 "Hg17 mi
1:00 pm89 °FHot.3 mph36%29.79 "HgN/A
12:00 pm85 °FPleasantly warm.3 mph40%29.82 "HgN/A
11:00 am81 °FWarm.5 mph45%29.83 "HgN/A
10:00 am77 °FMild.2 mph51%29.85 "HgN/A
9:00 am74 °FMild.2 mph58%29.87 "HgN/A
8:00 am71 °FPassing clouds.1 mph64%29.88 "Hg11 mi
7:00 am66 °FPassing clouds.3 mph72%29.89 "Hg9 mi
6:00 am63 °FMild.1 mph76%29.89 "HgN/A
5:00 am64 °FMild.1 mph73%29.87 "HgN/A
4:00 am68 °FMild.2 mph63%29.86 "HgN/A
Weather by CustomWeather, © 2017

See weather overviewHow to use our weather pages